Location: Boston
(42.3580°N, 71.0600°W)
Time: 13:09:44
(UTC-05:00)

N. Korean satellite - Pass Details

Date: 15 October 2017
Orbit: 461 x 513 km, 97.2° (Epoch: 11 December)

Event Time Altitude Azimuth Distance (km) Brightness Sun altitude
Rises 19:01:30 0° 177° (S) 2,542 10.2 -11.8°
Reaches altitude 10° 19:03:37 10° 183° (S) 1,658 9.3 -12.2°
Maximum altitude 19:07:05 52° 260° (W) 604 7.5 -12.8°
Drops below altitude 10° 19:10:33 10° 338° (NNW) 1,644 9.5 -13.5°
Sets 19:12:38 0° 343° (NNW) 2,519 10.4 -13.8°
